owner,sensor,date,latitude,longitude,vertical_datum,sea_water_practical_salinity,qcFlag 
WAVCIS,ioos:station:WAVCIS:CSI16:2,2010-04-01T00:00:00Z,29.4012,-89.0355,1.0,31.652,11111222 
WAVCIS,ioos:station:WAVCIS:CSI16:2,2010-04-01T00:15:00Z,29.4012,-89.0355,1.0,31.654,11111222 
WAVCIS,ioos:station:WAVCIS:CSI16:2,2010-04-01T00:30:00Z,29.4012,-89.0355,1.0,31.652,11111222 
WAVCIS,ioos:station:WAVCIS:CSI16:2,2010-04-01T00:45:00Z,29.4012,-89.0355,1.0,31.66,11111222 
WAVCIS,ioos:station:WAVCIS:CSI16:2,2010-04-01T01:00:00Z,29.4012,-89.0355,1.0,31.661,11111222 
WAVCIS,ioos:station:WAVCIS:CSI16:2,2010-04-01T01:15:00Z,29.4012,-89.0355,1.0,31.66,11111222 
WAVCIS,ioos:station:WAVCIS:CSI16:2,2010-04-01T01:30:00Z,29.4012,-89.0355,1.0,31.661,11111222 
WAVCIS,ioos:station:WAVCIS:CSI16:2,2010-04-01T01:45:00Z,29.4012,-89.0355,1.0,31.667,11111222 
WAVCIS,ioos:station:WAVCIS:CSI16:2,2010-04-01T02:00:00Z,29.4012,-89.0355,1.0,31.672,11111222 
WAVCIS,ioos:station:WAVCIS:CSI16:2,2010-04-01T02:15:00Z,29.4012,-89.0355,1.0,31.672,11111222 
WAVCIS,ioos:station:WAVCIS:CSI16:2,2010-04-01T02:30:00Z,29.4012,-89.0355,1.0,31.675,11111222 
WAVCIS,ioos:station:WAVCIS:CSI16:2,2010-04-01T02:45:00Z,29.4012,-89.0355,1.0,31.675,11111222 
WAVCIS,ioos:station:WAVCIS:CSI16:2,2010-04-01T03:00:00Z,29.4012,-89.0355,1.0,31.677,11111222 
WAVCIS,ioos:station:WAVCIS:CSI16:2,2010-04-01T03:15:00Z,29.4012,-89.0355,1.0,31.679,11111222 
WAVCIS,ioos:station:WAVCIS:CSI16:2,2010-04-01T03:30:00Z,29.4012,-89.0355,1.0,31.68,11111222 
WAVCIS,ioos:station:WAVCIS:CSI16:2,2010-04-01T03:45:00Z,29.4012,-89.0355,1.0,31.681,11111222 
WAVCIS,ioos:station:WAVCIS:CSI16:2,2010-04-01T04:00:00Z,29.4012,-89.0355,1.0,31.687,11111222 
WAVCIS,ioos:station:WAVCIS:CSI16:2,2010-04-01T04:15:00Z,29.4012,-89.0355,1.0,31.69,11111222 
WAVCIS,ioos:station:WAVCIS:CSI16:2,2010-04-01T04:30:00Z,29.4012,-89.0355,1.0,31.69,11111222 
WAVCIS,ioos:station:WAVCIS:CSI16:2,2010-04-01T04:45:00Z,29.4012,-89.0355,1.0,31.691,11111222 
WAVCIS,ioos:station:WAVCIS:CSI16:2,2010-04-01T05:00:00Z,29.4012,-89.0355,1.0,31.692,11111222 
WAVCIS,ioos:station:WAVCIS:CSI16:2,2010-04-01T05:15:00Z,29.4012,-89.0355,1.0,31.696,11111222 
WAVCIS,ioos:station:WAVCIS:CSI16:2,2010-04-01T05:30:00Z,29.4012,-89.0355,1.0,31.699,11111222 
WAVCIS,ioos:station:WAVCIS:CSI16:2,2010-04-01T05:45:00Z,29.4012,-89.0355,1.0,31.702,11111222 
WAVCIS,ioos:station:WAVCIS:CSI16:2,2010-04-01T06:00:00Z,29.4012,-89.0355,1.0,31.706,11111222 
WAVCIS,ioos:station:WAVCIS:CSI16:2,2010-04-01T06:15:00Z,29.4012,-89.0355,1.0,31.712,11111222 
WAVCIS,ioos:station:WAVCIS:CSI16:2,2010-04-01T06:30:00Z,29.4012,-89.0355,1.0,31.719,11111222 
WAVCIS,ioos:station:WAVCIS:CSI16:2,2010-04-01T06:45:00Z,29.4012,-89.0355,1.0,31.726,11111222 
WAVCIS,ioos:station:WAVCIS:CSI16:2,2010-04-01T07:00:00Z,29.4012,-89.0355,1.0,31.731,11111222 
WAVCIS,ioos:station:WAVCIS:CSI16:2,2010-04-01T07:15:00Z,29.4012,-89.0355,1.0,31.739,11111222 
WAVCIS,ioos:station:WAVCIS:CSI16:2,2010-04-01T07:30:00Z,29.4012,-89.0355,1.0,31.747,11111222 
WAVCIS,ioos:station:WAVCIS:CSI16:2,2010-04-01T07:45:00Z,29.4012,-89.0355,1.0,31.758,11111222 
WAVCIS,ioos:station:WAVCIS:CSI16:2,2010-04-01T08:00:00Z,29.4012,-89.0355,1.0,31.769,11111222 
WAVCIS,ioos:station:WAVCIS:CSI16:2,2010-04-01T08:15:00Z,29.4012,-89.0355,1.0,31.775,11111222 
WAVCIS,ioos:station:WAVCIS:CSI16:2,2010-04-01T08:30:00Z,29.4012,-89.0355,1.0,31.788,11111222 
WAVCIS,ioos:station:WAVCIS:CSI16:2,2010-04-01T08:45:00Z,29.4012,-89.0355,1.0,31.798,11111222 
WAVCIS,ioos:station:WAVCIS:CSI16:2,2010-04-01T09:00:00Z,29.4012,-89.0355,1.0,31.807,11111222 
WAVCIS,ioos:station:WAVCIS:CSI16:2,2010-04-01T09:15:00Z,29.4012,-89.0355,1.0,31.816,11111222 
WAVCIS,ioos:station:WAVCIS:CSI16:2,2010-04-01T09:30:00Z,29.4012,-89.0355,1.0,31.823,11111222 
WAVCIS,ioos:station:WAVCIS:CSI16:2,2010-04-01T09:45:00Z,29.4012,-89.0355,1.0,31.827,11111222 
WAVCIS,ioos:station:WAVCIS:CSI16:2,2010-04-01T10:00:00Z,29.4012,-89.0355,1.0,31.832,11111222 
WAVCIS,ioos:station:WAVCIS:CSI16:2,2010-04-01T10:15:00Z,29.4012,-89.0355,1.0,31.842,11111222 
WAVCIS,ioos:station:WAVCIS:CSI16:2,2010-04-01T10:30:00Z,29.4012,-89.0355,1.0,31.848,11111222 
WAVCIS,ioos:station:WAVCIS:CSI16:2,2010-04-01T10:45:00Z,29.4012,-89.0355,1.0,31.854,11111222 
WAVCIS,ioos:station:WAVCIS:CSI16:2,2010-04-01T11:00:00Z,29.4012,-89.0355,1.0,31.859,11111222 
WAVCIS,ioos:station:WAVCIS:CSI16:2,2010-04-01T11:15:00Z,29.4012,-89.0355,1.0,31.862,11111222 
WAVCIS,ioos:station:WAVCIS:CSI16:2,2010-04-01T11:30:00Z,29.4012,-89.0355,1.0,31.865,11111222 
WAVCIS,ioos:station:WAVCIS:CSI16:2,2010-04-01T11:45:00Z,29.4012,-89.0355,1.0,31.868,11111222 
WAVCIS,ioos:station:WAVCIS:CSI16:2,2010-04-01T12:00:00Z,29.4012,-89.0355,1.0,31.873,11111222 
WAVCIS,ioos:station:WAVCIS:CSI16:2,2010-04-01T12:15:00Z,29.4012,-89.0355,1.0,31.877,11111222 
WAVCIS,ioos:station:WAVCIS:CSI16:2,2010-04-01T12:30:00Z,29.4012,-89.0355,1.0,31.876,11111222 
WAVCIS,ioos:station:WAVCIS:CSI16:2,2010-04-01T12:45:00Z,29.4012,-89.0355,1.0,31.876,11111222 
WAVCIS,ioos:station:WAVCIS:CSI16:2,2010-04-01T13:00:00Z,29.4012,-89.0355,1.0,31.877,11111222 
WAVCIS,ioos:station:WAVCIS:CSI16:2,2010-04-01T13:15:00Z,29.4012,-89.0355,1.0,31.874,11111222 
WAVCIS,ioos:station:WAVCIS:CSI16:2,2010-04-01T13:30:00Z,29.4012,-89.0355,1.0,31.876,11111222 
WAVCIS,ioos:station:WAVCIS:CSI16:2,2010-04-01T13:45:00Z,29.4012,-89.0355,1.0,31.872,11111222 
WAVCIS,ioos:station:WAVCIS:CSI16:2,2010-04-01T14:00:00Z,29.4012,-89.0355,1.0,31.878,11111222 
WAVCIS,ioos:station:WAVCIS:CSI16:2,2010-04-01T14:15:00Z,29.4012,-89.0355,1.0,31.871,11111222 
WAVCIS,ioos:station:WAVCIS:CSI16:2,2010-04-01T14:30:00Z,29.4012,-89.0355,1.0,31.854,11111222 
WAVCIS,ioos:station:WAVCIS:CSI16:2,2010-04-01T14:45:00Z,29.4012,-89.0355,1.0,31.85,11111222 
WAVCIS,ioos:station:WAVCIS:CSI16:2,2010-04-01T15:00:00Z,29.4012,-89.0355,1.0,31.855,11111222 
WAVCIS,ioos:station:WAVCIS:CSI16:2,2010-04-01T15:15:00Z,29.4012,-89.0355,1.0,31.843,11111222 
WAVCIS,ioos:station:WAVCIS:CSI16:2,2010-04-01T15:30:00Z,29.4012,-89.0355,1.0,31.841,11111222 
WAVCIS,ioos:station:WAVCIS:CSI16:2,2010-04-01T15:45:00Z,29.4012,-89.0355,1.0,31.843,11111222 
WAVCIS,ioos:station:WAVCIS:CSI16:2,2010-04-01T16:00:00Z,29.4012,-89.0355,1.0,31.842,11111222 
WAVCIS,ioos:station:WAVCIS:CSI16:2,2010-04-01T16:15:00Z,29.4012,-89.0355,1.0,31.841,11111222 
WAVCIS,ioos:station:WAVCIS:CSI16:2,2010-04-01T16:30:00Z,29.4012,-89.0355,1.0,31.839,11111222 
WAVCIS,ioos:station:WAVCIS:CSI16:2,2010-04-01T16:45:00Z,29.4012,-89.0355,1.0,31.837,11111222 
WAVCIS,ioos:station:WAVCIS:CSI16:2,2010-04-01T17:00:00Z,29.4012,-89.0355,1.0,31.837,11111222 
WAVCIS,ioos:station:WAVCIS:CSI16:2,2010-04-01T17:15:00Z,29.4012,-89.0355,1.0,31.836,11111222 
WAVCIS,ioos:station:WAVCIS:CSI16:2,2010-04-01T17:30:00Z,29.4012,-89.0355,1.0,31.83,11111222 
WAVCIS,ioos:station:WAVCIS:CSI16:2,2010-04-01T17:45:00Z,29.4012,-89.0355,1.0,31.829,11111222 
WAVCIS,ioos:station:WAVCIS:CSI16:2,2010-04-01T18:00:00Z,29.4012,-89.0355,1.0,31.828,11111222 
WAVCIS,ioos:station:WAVCIS:CSI16:2,2010-04-01T18:15:00Z,29.4012,-89.0355,1.0,31.829,11111222 
WAVCIS,ioos:station:WAVCIS:CSI16:2,2010-04-01T18:30:00Z,29.4012,-89.0355,1.0,31.828,11111222 
WAVCIS,ioos:station:WAVCIS:CSI16:2,2010-04-01T18:45:00Z,29.4012,-89.0355,1.0,31.828,11111222 
WAVCIS,ioos:station:WAVCIS:CSI16:2,2010-04-01T19:00:00Z,29.4012,-89.0355,1.0,31.827,11111222 
WAVCIS,ioos:station:WAVCIS:CSI16:2,2010-04-01T19:15:00Z,29.4012,-89.0355,1.0,31.826,11111222 
WAVCIS,ioos:station:WAVCIS:CSI16:2,2010-04-01T19:30:00Z,29.4012,-89.0355,1.0,31.824,11111222 
WAVCIS,ioos:station:WAVCIS:CSI16:2,2010-04-01T19:45:00Z,29.4012,-89.0355,1.0,31.825,11111222 
WAVCIS,ioos:station:WAVCIS:CSI16:2,2010-04-01T20:00:00Z,29.4012,-89.0355,1.0,31.824,11111222 
WAVCIS,ioos:station:WAVCIS:CSI16:2,2010-04-01T20:15:00Z,29.4012,-89.0355,1.0,31.823,11111222 
WAVCIS,ioos:station:WAVCIS:CSI16:2,2010-04-01T20:30:00Z,29.4012,-89.0355,1.0,31.822,11111222 
WAVCIS,ioos:station:WAVCIS:CSI16:2,2010-04-01T20:45:00Z,29.4012,-89.0355,1.0,31.823,11111222 
WAVCIS,ioos:station:WAVCIS:CSI16:2,2010-04-01T21:00:00Z,29.4012,-89.0355,1.0,31.825,11111222 
WAVCIS,ioos:station:WAVCIS:CSI16:2,2010-04-01T21:15:00Z,29.4012,-89.0355,1.0,31.823,11111222 
WAVCIS,ioos:station:WAVCIS:CSI16:2,2010-04-01T21:30:00Z,29.4012,-89.0355,1.0,31.822,11111222 
WAVCIS,ioos:station:WAVCIS:CSI16:2,2010-04-01T21:45:00Z,29.4012,-89.0355,1.0,31.82,11111222 
WAVCIS,ioos:station:WAVCIS:CSI16:2,2010-04-01T22:00:00Z,29.4012,-89.0355,1.0,31.82,11111222 
WAVCIS,ioos:station:WAVCIS:CSI16:2,2010-04-01T22:15:00Z,29.4012,-89.0355,1.0,31.82,11111222 
WAVCIS,ioos:station:WAVCIS:CSI16:2,2010-04-01T22:30:00Z,29.4012,-89.0355,1.0,31.82,11111222 
WAVCIS,ioos:station:WAVCIS:CSI16:2,2010-04-01T22:45:00Z,29.4012,-89.0355,1.0,31.82,11111222 
WAVCIS,ioos:station:WAVCIS:CSI16:2,2010-04-01T23:00:00Z,29.4012,-89.0355,1.0,31.82,11111222 
WAVCIS,ioos:station:WAVCIS:CSI16:2,2010-04-01T23:15:00Z,29.4012,-89.0355,1.0,31.819,11111222 
WAVCIS,ioos:station:WAVCIS:CSI16:2,2010-04-01T23:30:00Z,29.4012,-89.0355,1.0,31.819,11111222 
WAVCIS,ioos:station:WAVCIS:CSI16:2,2010-04-01T23:45:00Z,29.4012,-89.0355,1.0,31.819,11111222 
WAVCIS,ioos:station:WAVCIS:CSI16:2,2010-04-02T00:00:00Z,29.4012,-89.0355,1.0,31.82,11111222 
WAVCIS,ioos:station:WAVCIS:CSI16:2,2010-04-02T00:15:00Z,29.4012,-89.0355,1.0,31.818,11111222 
WAVCIS,ioos:station:WAVCIS:CSI16:2,2010-04-02T00:30:00Z,29.4012,-89.0355,1.0,31.819,11111222 
WAVCIS,ioos:station:WAVCIS:CSI16:2,2010-04-02T00:45:00Z,29.4012,-89.0355,1.0,31.819,11111222 
WAVCIS,ioos:station:WAVCIS:CSI16:2,2010-04-02T01:00:00Z,29.4012,-89.0355,1.0,31.818,11111222 
WAVCIS,ioos:station:WAVCIS:CSI16:2,2010-04-02T01:15:00Z,29.4012,-89.0355,1.0,31.812,11111222 
WAVCIS,ioos:station:WAVCIS:CSI16:2,2010-04-02T01:30:00Z,29.4012,-89.0355,1.0,31.809,11111222 
WAVCIS,ioos:station:WAVCIS:CSI16:2,2010-04-02T01:45:00Z,29.4012,-89.0355,1.0,31.806,11111222 
WAVCIS,ioos:station:WAVCIS:CSI16:2,2010-04-02T02:00:00Z,29.4012,-89.0355,1.0,31.806,11111222 
WAVCIS,ioos:station:WAVCIS:CSI16:2,2010-04-02T02:15:00Z,29.4012,-89.0355,1.0,31.806,11111222 
WAVCIS,ioos:station:WAVCIS:CSI16:2,2010-04-02T02:30:00Z,29.4012,-89.0355,1.0,31.799,11111222 
WAVCIS,ioos:station:WAVCIS:CSI16:2,2010-04-02T02:45:00Z,29.4012,-89.0355,1.0,31.797,11111222 
WAVCIS,ioos:station:WAVCIS:CSI16:2,2010-04-02T03:00:00Z,29.4012,-89.0355,1.0,31.796,11111222 
WAVCIS,ioos:station:WAVCIS:CSI16:2,2010-04-02T03:15:00Z,29.4012,-89.0355,1.0,31.795,11111222 
WAVCIS,ioos:station:WAVCIS:CSI16:2,2010-04-02T03:30:00Z,29.4012,-89.0355,1.0,31.795,11111222 
WAVCIS,ioos:station:WAVCIS:CSI16:2,2010-04-02T03:45:00Z,29.4012,-89.0355,1.0,31.794,11111222 
WAVCIS,ioos:station:WAVCIS:CSI16:2,2010-04-02T04:00:00Z,29.4012,-89.0355,1.0,31.793,11111222 
WAVCIS,ioos:station:WAVCIS:CSI16:2,2010-04-02T04:15:00Z,29.4012,-89.0355,1.0,31.793,11111222 
WAVCIS,ioos:station:WAVCIS:CSI16:2,2010-04-02T04:30:00Z,29.4012,-89.0355,1.0,31.792,11111222 
WAVCIS,ioos:station:WAVCIS:CSI16:2,2010-04-02T04:45:00Z,29.4012,-89.0355,1.0,31.792,11111222 
WAVCIS,ioos:station:WAVCIS:CSI16:2,2010-04-02T05:00:00Z,29.4012,-89.0355,1.0,31.792,11111222 
WAVCIS,ioos:station:WAVCIS:CSI16:2,2010-04-02T05:15:00Z,29.4012,-89.0355,1.0,31.791,11111222 
WAVCIS,ioos:station:WAVCIS:CSI16:2,2010-04-02T05:30:00Z,29.4012,-89.0355,1.0,31.791,11111222 
WAVCIS,ioos:station:WAVCIS:CSI16:2,2010-04-02T05:45:00Z,29.4012,-89.0355,1.0,31.792,11111222 
WAVCIS,ioos:station:WAVCIS:CSI16:2,2010-04-02T06:00:00Z,29.4012,-89.0355,1.0,31.793,11111222 
WAVCIS,ioos:station:WAVCIS:CSI16:2,2010-04-02T06:15:00Z,29.4012,-89.0355,1.0,31.792,11111222 
WAVCIS,ioos:station:WAVCIS:CSI16:2,2010-04-02T06:30:00Z,29.4012,-89.0355,1.0,31.793,11111222 
WAVCIS,ioos:station:WAVCIS:CSI16:2,2010-04-02T06:45:00Z,29.4012,-89.0355,1.0,31.794,11111222 
WAVCIS,ioos:station:WAVCIS:CSI16:2,2010-04-02T07:00:00Z,29.4012,-89.0355,1.0,31.794,11111222 
WAVCIS,ioos:station:WAVCIS:CSI16:2,2010-04-02T07:15:00Z,29.4012,-89.0355,1.0,31.796,11111222 
WAVCIS,ioos:station:WAVCIS:CSI16:2,2010-04-02T07:30:00Z,29.4012,-89.0355,1.0,31.796,11111222 
WAVCIS,ioos:station:WAVCIS:CSI16:2,2010-04-02T07:45:00Z,29.4012,-89.0355,1.0,31.798,11111222 
WAVCIS,ioos:station:WAVCIS:CSI16:2,2010-04-02T08:00:00Z,29.4012,-89.0355,1.0,31.799,11111222 
WAVCIS,ioos:station:WAVCIS:CSI16:2,2010-04-02T08:15:00Z,29.4012,-89.0355,1.0,31.8,11111222 
WAVCIS,ioos:station:WAVCIS:CSI16:2,2010-04-02T08:30:00Z,29.4012,-89.0355,1.0,31.801,11111222 
WAVCIS,ioos:station:WAVCIS:CSI16:2,2010-04-02T08:45:00Z,29.4012,-89.0355,1.0,31.803,11111222 
WAVCIS,ioos:station:WAVCIS:CSI16:2,2010-04-02T09:00:00Z,29.4012,-89.0355,1.0,31.804,11111222 
WAVCIS,ioos:station:WAVCIS:CSI16:2,2010-04-02T09:15:00Z,29.4012,-89.0355,1.0,31.804,11111222 
WAVCIS,ioos:station:WAVCIS:CSI16:2,2010-04-02T09:30:00Z,29.4012,-89.0355,1.0,31.806,11111222 
WAVCIS,ioos:station:WAVCIS:CSI16:2,2010-04-02T09:45:00Z,29.4012,-89.0355,1.0,31.822,11111222 
WAVCIS,ioos:station:WAVCIS:CSI16:2,2010-04-02T10:00:00Z,29.4012,-89.0355,1.0,31.819,11111222 
WAVCIS,ioos:station:WAVCIS:CSI16:2,2010-04-02T10:15:00Z,29.4012,-89.0355,1.0,31.822,11111222 
WAVCIS,ioos:station:WAVCIS:CSI16:2,2010-04-02T10:30:00Z,29.4012,-89.0355,1.0,31.823,11111222 
WAVCIS,ioos:station:WAVCIS:CSI16:2,2010-04-02T10:45:00Z,29.4012,-89.0355,1.0,31.823,11111222 
WAVCIS,ioos:station:WAVCIS:CSI16:2,2010-04-02T11:00:00Z,29.4012,-89.0355,1.0,31.821,11111222 
WAVCIS,ioos:station:WAVCIS:CSI16:2,2010-04-02T11:15:00Z,29.4012,-89.0355,1.0,31.823,11111222 
WAVCIS,ioos:station:WAVCIS:CSI16:2,2010-04-02T11:30:00Z,29.4012,-89.0355,1.0,31.823,11111222 
WAVCIS,ioos:station:WAVCIS:CSI16:2,2010-04-02T11:45:00Z,29.4012,-89.0355,1.0,31.823,11111222 
WAVCIS,ioos:station:WAVCIS:CSI16:2,2010-04-02T12:00:00Z,29.4012,-89.0355,1.0,31.826,11111222 
WAVCIS,ioos:station:WAVCIS:CSI16:2,2010-04-02T12:15:00Z,29.4012,-89.0355,1.0,31.829,11111222 
WAVCIS,ioos:station:WAVCIS:CSI16:2,2010-04-02T12:30:00Z,29.4012,-89.0355,1.0,31.83,11111222 
WAVCIS,ioos:station:WAVCIS:CSI16:2,2010-04-02T12:45:00Z,29.4012,-89.0355,1.0,31.826,11111222 
WAVCIS,ioos:station:WAVCIS:CSI16:2,2010-04-02T13:00:00Z,29.4012,-89.0355,1.0,31.828,11111222 
WAVCIS,ioos:station:WAVCIS:CSI16:2,2010-04-02T13:15:00Z,29.4012,-89.0355,1.0,31.828,11111222 
WAVCIS,ioos:station:WAVCIS:CSI16:2,2010-04-02T13:30:00Z,29.4012,-89.0355,1.0,31.827,11111222 
WAVCIS,ioos:station:WAVCIS:CSI16:2,2010-04-02T13:45:00Z,29.4012,-89.0355,1.0,31.83,11111222 
WAVCIS,ioos:station:WAVCIS:CSI16:2,2010-04-02T14:00:00Z,29.4012,-89.0355,1.0,31.831,11111222 
WAVCIS,ioos:station:WAVCIS:CSI16:2,2010-04-02T14:15:00Z,29.4012,-89.0355,1.0,31.833,11111222 
WAVCIS,ioos:station:WAVCIS:CSI16:2,2010-04-02T14:30:00Z,29.4012,-89.0355,1.0,31.837,11111222 
WAVCIS,ioos:station:WAVCIS:CSI16:2,2010-04-02T14:45:00Z,29.4012,-89.0355,1.0,31.839,11111222 
WAVCIS,ioos:station:WAVCIS:CSI16:2,2010-04-02T15:00:00Z,29.4012,-89.0355,1.0,31.841,11111222 
WAVCIS,ioos:station:WAVCIS:CSI16:2,2010-04-02T15:15:00Z,29.4012,-89.0355,1.0,31.842,11111222 
WAVCIS,ioos:station:WAVCIS:CSI16:2,2010-04-02T15:30:00Z,29.4012,-89.0355,1.0,31.847,11111222 
WAVCIS,ioos:station:WAVCIS:CSI16:2,2010-04-02T15:45:00Z,29.4012,-89.0355,1.0,31.852,11111222 
WAVCIS,ioos:station:WAVCIS:CSI16:2,2010-04-02T16:00:00Z,29.4012,-89.0355,1.0,31.854,11111222 
WAVCIS,ioos:station:WAVCIS:CSI16:2,2010-04-02T16:15:00Z,29.4012,-89.0355,1.0,31.855,11111222 
WAVCIS,ioos:station:WAVCIS:CSI16:2,2010-04-02T16:30:00Z,29.4012,-89.0355,1.0,31.857,11111222 
WAVCIS,ioos:station:WAVCIS:CSI16:2,2010-04-02T16:45:00Z,29.4012,-89.0355,1.0,31.854,11111222 
WAVCIS,ioos:station:WAVCIS:CSI16:2,2010-04-02T17:00:00Z,29.4012,-89.0355,1.0,31.852,11111222 
WAVCIS,ioos:station:WAVCIS:CSI16:2,2010-04-02T17:15:00Z,29.4012,-89.0355,1.0,31.857,11111222 
WAVCIS,ioos:station:WAVCIS:CSI16:2,2010-04-02T17:30:00Z,29.4012,-89.0355,1.0,31.858,11111222 
WAVCIS,ioos:station:WAVCIS:CSI16:2,2010-04-02T17:45:00Z,29.4012,-89.0355,1.0,31.86,11111222 
WAVCIS,ioos:station:WAVCIS:CSI16:2,2010-04-02T18:00:00Z,29.4012,-89.0355,1.0,31.86,11111222 
WAVCIS,ioos:station:WAVCIS:CSI16:2,2010-04-02T18:15:00Z,29.4012,-89.0355,1.0,31.859,11111222 
WAVCIS,ioos:station:WAVCIS:CSI16:2,2010-04-02T18:30:00Z,29.4012,-89.0355,1.0,31.858,11111222 
WAVCIS,ioos:station:WAVCIS:CSI16:2,2010-04-02T18:45:00Z,29.4012,-89.0355,1.0,31.848,11111222 
WAVCIS,ioos:station:WAVCIS:CSI16:2,2010-04-02T19:00:00Z,29.4012,-89.0355,1.0,31.857,11111222 
WAVCIS,ioos:station:WAVCIS:CSI16:2,2010-04-02T19:15:00Z,29.4012,-89.0355,1.0,31.856,11111222 
WAVCIS,ioos:station:WAVCIS:CSI16:2,2010-04-02T19:30:00Z,29.4012,-89.0355,1.0,31.851,11111222 
WAVCIS,ioos:station:WAVCIS:CSI16:2,2010-04-02T19:45:00Z,29.4012,-89.0355,1.0,31.853,11111222 
WAVCIS,ioos:station:WAVCIS:CSI16:2,2010-04-02T20:00:00Z,29.4012,-89.0355,1.0,31.856,11111222 
WAVCIS,ioos:station:WAVCIS:CSI16:2,2010-04-02T20:15:00Z,29.4012,-89.0355,1.0,31.857,11111222 
WAVCIS,ioos:station:WAVCIS:CSI16:2,2010-04-02T20:30:00Z,29.4012,-89.0355,1.0,31.858,11111222 
WAVCIS,ioos:station:WAVCIS:CSI16:2,2010-04-02T20:45:00Z,29.4012,-89.0355,1.0,31.858,11111222 
WAVCIS,ioos:station:WAVCIS:CSI16:2,2010-04-02T21:00:00Z,29.4012,-89.0355,1.0,31.849,11111222 
WAVCIS,ioos:station:WAVCIS:CSI16:2,2010-04-02T21:15:00Z,29.4012,-89.0355,1.0,31.862,11111222 
WAVCIS,ioos:station:WAVCIS:CSI16:2,2010-04-02T21:30:00Z,29.4012,-89.0355,1.0,31.866,11111222 
WAVCIS,ioos:station:WAVCIS:CSI16:2,2010-04-02T21:45:00Z,29.4012,-89.0355,1.0,31.867,11111222 
WAVCIS,ioos:station:WAVCIS:CSI16:2,2010-04-02T22:00:00Z,29.4012,-89.0355,1.0,31.863,11111222 
WAVCIS,ioos:station:WAVCIS:CSI16:2,2010-04-02T22:15:00Z,29.4012,-89.0355,1.0,31.857,11111222 
WAVCIS,ioos:station:WAVCIS:CSI16:2,2010-04-02T22:30:00Z,29.4012,-89.0355,1.0,31.852,11111222 
WAVCIS,ioos:station:WAVCIS:CSI16:2,2010-04-02T22:45:00Z,29.4012,-89.0355,1.0,31.736,11111222 
WAVCIS,ioos:station:WAVCIS:CSI16:2,2010-04-02T23:00:00Z,29.4012,-89.0355,1.0,31.709,11111222 
WAVCIS,ioos:station:WAVCIS:CSI16:2,2010-04-02T23:15:00Z,29.4012,-89.0355,1.0,31.611,11111222 
WAVCIS,ioos:station:WAVCIS:CSI16:2,2010-04-02T23:30:00Z,29.4012,-89.0355,1.0,31.609,11111222 
WAVCIS,ioos:station:WAVCIS:CSI16:2,2010-04-02T23:45:00Z,29.4012,-89.0355,1.0,31.308,11111222 
WAVCIS,ioos:station:WAVCIS:CSI16:2,2010-04-03T00:00:00Z,29.4012,-89.0355,1.0,30.981,11111222 
WAVCIS,ioos:station:WAVCIS:CSI16:2,2010-04-03T00:15:00Z,29.4012,-89.0355,1.0,31.011,11111222 
WAVCIS,ioos:station:WAVCIS:CSI16:2,2010-04-03T00:30:00Z,29.4012,-89.0355,1.0,30.435,11111222 
WAVCIS,ioos:station:WAVCIS:CSI16:2,2010-04-03T00:45:00Z,29.4012,-89.0355,1.0,30.611,11111222 
WAVCIS,ioos:station:WAVCIS:CSI16:2,2010-04-03T01:00:00Z,29.4012,-89.0355,1.0,30.763,11111222 
WAVCIS,ioos:station:WAVCIS:CSI16:2,2010-04-03T01:15:00Z,29.4012,-89.0355,1.0,30.758,11111222 
WAVCIS,ioos:station:WAVCIS:CSI16:2,2010-04-03T01:30:00Z,29.4012,-89.0355,1.0,30.51,11111222 
WAVCIS,ioos:station:WAVCIS:CSI16:2,2010-04-03T01:45:00Z,29.4012,-89.0355,1.0,31.018,11111222 
WAVCIS,ioos:station:WAVCIS:CSI16:2,2010-04-03T02:00:00Z,29.4012,-89.0355,1.0,30.619,11111222 
WAVCIS,ioos:station:WAVCIS:CSI16:2,2010-04-03T02:15:00Z,29.4012,-89.0355,1.0,30.674,11111222 
WAVCIS,ioos:station:WAVCIS:CSI16:2,2010-04-03T02:30:00Z,29.4012,-89.0355,1.0,30.886,11111222 
WAVCIS,ioos:station:WAVCIS:CSI16:2,2010-04-03T02:45:00Z,29.4012,-89.0355,1.0,30.904,11111222 
WAVCIS,ioos:station:WAVCIS:CSI16:2,2010-04-03T03:00:00Z,29.4012,-89.0355,1.0,31.209,11111222 
WAVCIS,ioos:station:WAVCIS:CSI16:2,2010-04-03T03:15:00Z,29.4012,-89.0355,1.0,31.463,11111222 
WAVCIS,ioos:station:WAVCIS:CSI16:2,2010-04-03T03:30:00Z,29.4012,-89.0355,1.0,31.617,11111222 
WAVCIS,ioos:station:WAVCIS:CSI16:2,2010-04-03T03:45:00Z,29.4012,-89.0355,1.0,31.65,11111222 
WAVCIS,ioos:station:WAVCIS:CSI16:2,2010-04-03T04:00:00Z,29.4012,-89.0355,1.0,31.662,11111222 
WAVCIS,ioos:station:WAVCIS:CSI16:2,2010-04-03T04:15:00Z,29.4012,-89.0355,1.0,31.571,11111222 
WAVCIS,ioos:station:WAVCIS:CSI16:2,2010-04-03T04:30:00Z,29.4012,-89.0355,1.0,31.58,11111222 
WAVCIS,ioos:station:WAVCIS:CSI16:2,2010-04-03T04:45:00Z,29.4012,-89.0355,1.0,31.575,11111222 
WAVCIS,ioos:station:WAVCIS:CSI16:2,2010-04-03T05:00:00Z,29.4012,-89.0355,1.0,31.524,11111222 
WAVCIS,ioos:station:WAVCIS:CSI16:2,2010-04-03T05:15:00Z,29.4012,-89.0355,1.0,31.472,11111222 
WAVCIS,ioos:station:WAVCIS:CSI16:2,2010-04-03T05:30:00Z,29.4012,-89.0355,1.0,31.477,11111222 
WAVCIS,ioos:station:WAVCIS:CSI16:2,2010-04-03T05:45:00Z,29.4012,-89.0355,1.0,31.475,11111222 
WAVCIS,ioos:station:WAVCIS:CSI16:2,2010-04-03T06:00:00Z,29.4012,-89.0355,1.0,31.473,11111222 
WAVCIS,ioos:station:WAVCIS:CSI16:2,2010-04-03T06:15:00Z,29.4012,-89.0355,1.0,31.472,11111222 
WAVCIS,ioos:station:WAVCIS:CSI16:2,2010-04-03T06:30:00Z,29.4012,-89.0355,1.0,31.442,11111222 
WAVCIS,ioos:station:WAVCIS:CSI16:2,2010-04-03T06:45:00Z,29.4012,-89.0355,1.0,31.375,11111222 
WAVCIS,ioos:station:WAVCIS:CSI16:2,2010-04-03T07:00:00Z,29.4012,-89.0355,1.0,31.396,11111222 
WAVCIS,ioos:station:WAVCIS:CSI16:2,2010-04-03T07:15:00Z,29.4012,-89.0355,1.0,31.423,11111222 
WAVCIS,ioos:station:WAVCIS:CSI16:2,2010-04-03T07:30:00Z,29.4012,-89.0355,1.0,31.367,11111222 
WAVCIS,ioos:station:WAVCIS:CSI16:2,2010-04-03T07:45:00Z,29.4012,-89.0355,1.0,31.305,11111222 
WAVCIS,ioos:station:WAVCIS:CSI16:2,2010-04-03T08:00:00Z,29.4012,-89.0355,1.0,31.265,11111222 
WAVCIS,ioos:station:WAVCIS:CSI16:2,2010-04-03T08:15:00Z,29.4012,-89.0355,1.0,31.245,11111222 
WAVCIS,ioos:station:WAVCIS:CSI16:2,2010-04-03T08:30:00Z,29.4012,-89.0355,1.0,31.26,11111222 
WAVCIS,ioos:station:WAVCIS:CSI16:2,2010-04-03T08:45:00Z,29.4012,-89.0355,1.0,31.291,11111222 
WAVCIS,ioos:station:WAVCIS:CSI16:2,2010-04-03T09:00:00Z,29.4012,-89.0355,1.0,31.408,11111222 
WAVCIS,ioos:station:WAVCIS:CSI16:2,2010-04-03T09:15:00Z,29.4012,-89.0355,1.0,31.359,11111222 
WAVCIS,ioos:station:WAVCIS:CSI16:2,2010-04-03T09:30:00Z,29.4012,-89.0355,1.0,31.397,11111222 
WAVCIS,ioos:station:WAVCIS:CSI16:2,2010-04-03T09:45:00Z,29.4012,-89.0355,1.0,31.547,11111222 
WAVCIS,ioos:station:WAVCIS:CSI16:2,2010-04-03T10:00:00Z,29.4012,-89.0355,1.0,31.611,11111222 
WAVCIS,ioos:station:WAVCIS:CSI16:2,2010-04-03T10:15:00Z,29.4012,-89.0355,1.0,31.643,11111222 
WAVCIS,ioos:station:WAVCIS:CSI16:2,2010-04-03T10:30:00Z,29.4012,-89.0355,1.0,31.663,11111222 
WAVCIS,ioos:station:WAVCIS:CSI16:2,2010-04-03T10:45:00Z,29.4012,-89.0355,1.0,31.678,11111222 
WAVCIS,ioos:station:WAVCIS:CSI16:2,2010-04-03T11:00:00Z,29.4012,-89.0355,1.0,31.693,11111222 
WAVCIS,ioos:station:WAVCIS:CSI16:2,2010-04-03T11:15:00Z,29.4012,-89.0355,1.0,31.711,11111222 
WAVCIS,ioos:station:WAVCIS:CSI16:2,2010-04-03T11:30:00Z,29.4012,-89.0355,1.0,31.678,11111222 
WAVCIS,ioos:station:WAVCIS:CSI16:2,2010-04-03T11:45:00Z,29.4012,-89.0355,1.0,31.722,11111222 
WAVCIS,ioos:station:WAVCIS:CSI16:2,2010-04-03T12:00:00Z,29.4012,-89.0355,1.0,31.772,11111222 
WAVCIS,ioos:station:WAVCIS:CSI16:2,2010-04-03T12:15:00Z,29.4012,-89.0355,1.0,31.779,11111222 
WAVCIS,ioos:station:WAVCIS:CSI16:2,2010-04-03T12:30:00Z,29.4012,-89.0355,1.0,31.775,11111222 
WAVCIS,ioos:station:WAVCIS:CSI16:2,2010-04-03T12:45:00Z,29.4012,-89.0355,1.0,31.762,11111222 
WAVCIS,ioos:station:WAVCIS:CSI16:2,2010-04-03T13:00:00Z,29.4012,-89.0355,1.0,31.769,11111222 
WAVCIS,ioos:station:WAVCIS:CSI16:2,2010-04-03T13:15:00Z,29.4012,-89.0355,1.0,31.772,11111222 
WAVCIS,ioos:station:WAVCIS:CSI16:2,2010-04-03T13:30:00Z,29.4012,-89.0355,1.0,31.783,11111222 
WAVCIS,ioos:station:WAVCIS:CSI16:2,2010-04-03T13:45:00Z,29.4012,-89.0355,1.0,31.751,11111222 
WAVCIS,ioos:station:WAVCIS:CSI16:2,2010-04-03T14:00:00Z,29.4012,-89.0355,1.0,31.767,11111222 
WAVCIS,ioos:station:WAVCIS:CSI16:2,2010-04-03T14:15:00Z,29.4012,-89.0355,1.0,31.782,11111222 
WAVCIS,ioos:station:WAVCIS:CSI16:2,2010-04-03T14:30:00Z,29.4012,-89.0355,1.0,31.783,11111222 
WAVCIS,ioos:station:WAVCIS:CSI16:2,2010-04-03T14:45:00Z,29.4012,-89.0355,1.0,31.772,11111222 
WAVCIS,ioos:station:WAVCIS:CSI16:2,2010-04-03T15:00:00Z,29.4012,-89.0355,1.0,31.785,11111222 
WAVCIS,ioos:station:WAVCIS:CSI16:2,2010-04-03T15:15:00Z,29.4012,-89.0355,1.0,31.778,11111222 